Regional Weather Roundup
Issued by NWS Mobile, AL

Home | Current Version | Previous Version | Text Only | Print | Product List | Glossary On
Versions: 1 2 3 4 5 6 7 8 9 10 11 12 13 14 15 16 17 18 19 20 21 22 23 24 25 26 27 28 29 30 31 32 33 34 35 36 37 38 39 40 41 42 43 44 45 46 47 48 49 50
000
ASUS44 KMOB 140412
RWRMOB
REGIONAL WEATHER ROUNDUP
NATIONAL WEATHER SERVICE MOBILE AL
1000 PM CST SAT FEB 13 2016

NOTE: "FAIR" INDICATES FEW OR NO CLOUDS BELOW 12,000 FEET WITH NO
      SIGNIFICANT WEATHER AND/OR OBSTRUCTIONS TO VISIBILITY.

  * THESE STATIONS ARE PART OF THE UNIVERSITY OF SOUTH ALABAMA
    MESONET AND ARE NOT UNDER NWS OR FAA QUALITY CONTROL.

ALZ061>064-140500-
COASTAL ALABAMA

CITY           SKY/WX    TMP DP  RH WIND       PRES   REMARKS
MOBILE REG APT CLEAR     42  23  46 NE3       30.37S
BROOKLEY FIELD CLEAR     48  24  39 NE12      30.38S
USA CAMPUS*    NOT AVBL
DOG RIVER*     NOT AVBL


CITY           SKY/WX    TMP DP  RH WIND       PRES   REMARKS
MOUNT VERNON*  NOT AVBL
SARALAND*      NOT AVBL
BAY MINETTE*   NOT AVBL
LOXLEY*        NOT AVBL
ROBERTSDALE*   NOT AVBL
FAIRHOPE*      NOT AVBL
ELBERTA*       NOT AVBL
FOLEY*         NOT AVBL
GRAND BAY*     NOT AVBL
DAUPHIN ISLND* NOT AVBL
BON SCOUR NWR* NOT AVBL
GULF SHORES    CLEAR     44  22  40 CALM      30.37R

$$

ALZ051>060-140500-
INTERIOR SOUTHWEST AND SOUTH CENTRAL ALABAMA

CITY           SKY/WX    TMP DP  RH WIND       PRES   REMARKS
GREENVILLE     CLEAR     40  12  32 N3        30.36F
EVERGREEN      CLEAR     38  20  48 NE3       30.37F
CASTLEBERRY*   NOT AVBL
ATMORE*        NOT AVBL
DIXIE*         NOT AVBL
ANDALUSIA/OPP  CLEAR     44  15  31 NE5       30.36
ANDALUSIA*     NOT AVBL
FLORALA APT    CLEAR     37  21  52 N6        30.37
FLORALA*       NOT AVBL

$$

FLZ001>006-140500-
WESTERN FLORIDA PANHANDLE

CITY           SKY/WX    TMP DP  RH WIND       PRES   REMARKS
PENSACOLA      CLEAR     47  23  38 N8        30.36S
NAS PENSACOLA  CLEAR     46  20  35 N6        30.36S
MILTON         CLEAR     40  21  46 N3        30.36S
WHTNG S FIELD  CLEAR     44  21  40 N6        30.36F


CITY           SKY/WX    TMP DP  RH WIND       PRES   REMARKS
WALNUT HILL*   NOT AVBL
JAY*           NOT AVBL
DUKE FIELD     CLEAR     35  24  64 NE3       30.34F
CRESTVIEW      CLEAR     38  21  50 CALM      30.37F
VALPARAISO     PTCLDY    43  21  42 N2        30.34S
DESTIN         CLEAR     50  21  32 NE7       30.36S

$$

MSZ076-079-140500-
INTERIOR SOUTHEAST MISSISSIPPI

CITY           SKY/WX    TMP DP  RH WIND       PRES   REMARKS
LEAKESVILLE*   NOT AVBL
AGRICOLA*      NOT AVBL

$$

MARINE OBSERVATIONS

STATION/POSITION TIME  TEMP    WIND        PRES    WAVE
                       AIR SEA DIR/SP/G            HT/PER
                 (UTC) (F)     (DEG/KT/KT) (MB)    (FT/S)
PASCAGOULA       0300   51                 1027.8F
PETIT BOIS ISLND 0300   54                 1028.5F
GRAND BAY        0200   49      20/  5     1029.0
KATRINA CUT      0300   53      50/ 15       N/A
CEDAR POINT      0300   53      60/ 12     1027.8R
E DAUPHIN ISLAND 0400   51      30/ 14/ 16 1028.1S
MIDDLE BAY LIGHT 0300           50/ 14     1027.1S
USCG MOBILE BAY  0300   50 54              1028.9F
STATE DOCKS      0300   48 53              1028.2F
MEAHER PARK      0300   47      20/  3     1028.4S
WEEKS BAY        0200   44                   N/A
FORT MORGAN      0300   52                 1027.6R
12 S ORANGE BCH  0350   55 64   30/ 17/ 21 1027.0F   2/ 4
PENSACOLA BAY    0300   52 52              1028.2R

$$

SELECTED LOCATIONS ACROSS THE REGION

CITY           SKY/WX    TMP DP  RH WIND       PRES   REMARKS
NEW ORLEANS    CLEAR     50  37  61 SE5       30.33F
GULFPORT       CLEAR     48  26  42 NE5       30.35S
PASCAGOULA AP  CLEAR     42  27  55 NE6       30.37S
PASCAGOULA*    NOT AVBL
HATTIESBURG    CLEAR     38  29  70 CALM      30.37F
LAUREL         CLEAR     41  18  38 NE5       30.36F
MERIDIAN       CLEAR     32  22  66 CALM      30.38F
JACKSON        CLEAR     42  17  36 E8        30.35F
MONTGOMERY     CLEAR     38  16  40 N6        30.39F
TROY           CLEAR     39  15  37 NE3       30.37F
KINSTON*       NOT AVBL
GENEVA*        NOT AVBL
ASHFORD*       NOT AVBL
DOTHAN         CLEAR     40  17  39 N7        30.39S
PANAMA CITY    CLEAR     44  22  41 N6        30.34S

$$




USA.gov is the U.S. government's official web portal to all federal, state and local government web resources and services.